Find Local Weather

World > North America > United States > New Jersey

Upper Greenwood Lake, New Jersey Regional Weather

Lat: 41.18N, Lon: 74.38W
Wx Zone: NJZ002
Warning FLW WEATHER ALERT - (More Info. Click Here) Warning
Feedback

Upper Greenwood Lake, NJ Regional Weather

Expires:201905230800;;314693
ASUS41 KPHI 230712
RWRPHI

REGIONAL WEATHER ROUNDUP
NATIONAL WEATHER SERVICE MOUNT HOLLY NJ
300 AM EDT THU MAY 23 2019

NOTE:  "FAIR" INDICATES FEW OR NO CLOUDS BELOW 12,000 FEET WITH NO
SIGNIFICANT WEATHER AND/OR OBSTRUCTIONS TO VISIBILITY.

 * = STATION DOES NOT REPORT PRECIPITATION (E.G. RAIN, SNOW, ETC.) 
        OR FOG.


NJZ001>014-230800-
NORTHERN NEW JERSEY
  
CITY           SKY/WX    TMP DP  RH WIND       PRES   REMARKS
SUSSEX         CLOUDY    56  54  93 CALM      30.17F                  
ANDOVER*         N/A     61  43  51 SW3       30.17F                  
MORRISTOWN     MOCLDY    59  50  72 CALM      30.16F                  
NEWARK         MOCLDY    63  45  51 SW9       30.17F                  
TETERBORO      FAIR      63  45  51 S5        30.16F                  
CALDWELL       MOCLDY    64  45  49 VRB5      30.16F                  
SOMERVILLE     FAIR      55  50  83 CALM      30.17F                  
ALLAIRE*       FAIR      58  45  62 S5        30.21F                  
TOMS RIVER*    FAIR      55  46  71 SW6       30.22F                  

$$

SKY/WX - Weather  TMP - Temperature  DP - Dew Point  RH - Relative Humidity
WIND - Wind Direction/Speed PRES - Barometric Pressure VSB - Visibility
WCI - Wind Chill Index E13G22 Wind - East Wind 13 mph/Gusts of 22 mph